Lid_Strength_Index
-0 -0 0 0 0 0 0 1 1 1 2 2 2 2 1 1 1 1 2 2 2 2 2 2 2 2 3 6 6 6 1 2 4 6 7 7 8 9 11 10 10 11 9 9 9 9 10
0 0 0 1 1 0 0 1 1 2 2 2 2 2 2 2 1 1 2 2 2 2 2 2 2 2 5 9 4 5 5 4 5 6 6 7 8 8 9 9 10 9 9 9 8 9 9
0 1 1 1 1 1 1 1 2 2 2 2 2 2 2 2 2 2 2 2 2 2 2 2 2 3 6 8 4 4 3 5 4 5 7 6 7 8 9 9 8 8 11 10 9 8 9
2 2 2 2 2 2 3 3 3 3 3 3 2 2 2 2 2 2 2 2 3 2 2 2 2 4 8 4 4 4 4 5 3 4 5 6 6 8 9 8 9 11 11 14 10 9 8
1 2 2 2 3 3 3 3 3 3 3 3 3 3 3 3 3 3 3 3 3 3 2 2 5 6 8 2 4 4 4 5 4 4 6 4 7 9 8 11 13 12 14 13 11 9 10
2 2 2 2 2 3 3 3 3 4 4 4 4 4 4 4 4 4 4 4 3 3 4 3 4 8 7 8 5 5 5 5 6 6 7 8 10 12 11 13 16 13 13 14 14 11 11
1 1 1 2 2 2 2 3 4 4 4 4 4 4 4 4 4 4 5 6 8 7 6 8 7 9 7 5 5 7 6 6 7 8 12 10 13 14 12 10 10 10 12 13 12 9 11
0 0 1 2 2 2 2 2 3 4 4 4 4 5 5 4 4 4 4 7 7 7 10 6 6 5 5 5 8 6 6 10 10 12 11 12 14 10 9 9 9 10 11 12 10 8 9
0 0 0 1 1 1 2 2 2 3 3 4 4 4 5 4 4 5 6 6 5 6 12 10 9 9 7 7 9 9 8 10 11 12 12 14 12 9 9 10 10 11 11 11 11 10 10
0 1 0 0 0 1 1 1 2 3 3 4 4 4 4 4 6 6 7 4 4 5 16 13 11 9 8 8 10 7 7 9 10 12 11 13 10 10 11 11 11 13 9 10 11 13 16
1 1 1 1 1 1 1 1 1 3 3 3 3 4 4 4 6 7 5 4 4 6 22 11 11 6 8 10 9 9 6 9 12 11 11 13 11 11 11 11 10 12 9 11 11 13 15
2 1 1 1 1 1 1 1 1 3 3 3 4 4 3 5 6 5 4 5 6 13 20 12 9 10 9 9 9 8 7 7 8 11 11 11 10 11 11 9 9 9 10 11 11 13 19
2 2 2 1 1 1 1 1 1 1 1 2 2 3 3 3 7 4 3 6 14 19 11 12 11 10 10 10 10 9 10 11 13 15 15 12 12 10 9 12 10 11 13 17 18 18 18
3 2 2 2 1 1 1 1 1 1 1 2 2 2 2 3 3 4 5 10 17 14 14 10 10 10 11 10 10 10 11 13 10 11 14 16 17 11 9 11 11 11 12 16 20 19 18
3 2 2 1 1 0 1 1 1 1 2 2 2 4 4 3 2 2 7 14 16 13 11 12 11 12 12 10 12 11 12 13 11 11 15 15 15 10 9 9 10 12 14 10 14 14 17
3 2 2 1 1 0 -0 0 0 0 1 1 5 6 6 2 1 4 9 13 12 9 10 10 13 11 13 11 13 14 13 11 11 10 11 12 16 10 9 9 9 11 9 14 13 18 19
2 2 1 1 0 0 -0 -1 -0 -1 -0 0 4 7 5 0 2 7 13 13 11 8 9 11 12 12 12 11 11 13 12 11 10 10 10 12 13 13 11 11 12 11 12 11 12 14 17
2 1 1 1 0 1 1 -1 -1 -0 0 2 6 10 2 1 9 10 12 10 8 8 9 9 10 10 11 10 11 11 12 11 9 10 12 10 12 16 13 9 8 9 11 11 16 15 15
1 1 1 1 1 0 1 1 -1 -1 0 3 7 7 2 3 13 12 9 10 9 8 10 10 10 9 9 11 12 11 11 8 8 9 11 10 13 17 15 12 9 11 10 10 11 12 15
1 1 1 1 0 0 1 1 0 -1 0 3 6 10 7 5 7 9 10 10 10 7 9 9 9 9 10 11 10 11 11 8 7 9 7 8 11 13 18 14 11 13 11 10 12 17 16
1 1 0 0 0 0 -0 -0 0 -1 1 3 6 9 8 11 10 9 8 9 10 10 9 8 10 10 10 12 11 12 10 9 8 7 8 9 14 12 11 11 10 11 11 10 11 11 14
0 0 0 -0 -0 -0 -0 -0 -1 -1 -0 5 9 8 7 9 8 9 9 10 10 9 9 10 10 9 9 11 11 12 10 10 11 8 9 8 13 11 13 10 10 12 10 10 10 10 10
0 -0 -0 -0 -0 -0 -0 -0 -1 -1 -0 6 4 3 6 8 10 10 10 9 8 7 7 7 8 9 10 8 8 8 8 7 7 9 10 10 12 13 16 11 12 15 12 11 10 9 10
0 -1 -1 -1 -1 -0 -1 -1 -1 -1 -0 3 3 4 8 11 10 10 8 8 8 8 9 7 6 9 6 5 6 6 7 7 7 8 7 11 12 13 15 13 20 13 8 8 10 9 9
-1 -1 -1 -1 -1 -1 -1 -1 -1 -1 -1 2 3 4 6 11 9 9 8 8 7 7 8 7 6 6 5 7 10 11 12 11 9 8 8 8 11 14 16 17 14 11 9 10 12 12 8
-1 -1 -1 -1 -1 -1 -1 -1 -1 -1 -1 1 3 2 4 8 10 7 8 8 9 9 9 8 5 5 5 9 12 15 16 13 13 11 8 8 9 13 15 18 20 12 8 6 7 15 8
-1 -1 -1 -1 -1 -1 -0 -0 -1 -1 -1 1 3 2 4 7 6 5 8 9 7 8 10 8 7 8 6 11 14 15 15 10 14 14 14 13 12 15 15 17 14 8 7 7 16 14 8
-1 -1 -1 -1 -1 -1 -0 -0 -0 -1 -1 1 3 2 3 7 5 4 4 6 6 8 11 7 8 8 10 12 13 13 13 12 12 10 12 14 15 16 15 17 18 7 8 12 10 7 7
-1 -1 -1 -1 -1 -1 0 0 -0 -1 -1 0 4 1 0 4 6 4 3 3 3 4 6 7 8 8 8 11 11 11 13 12 12 16 8 14 12 13 12 13 8 7 7 6 6 7 7